Change the Weather History Date:

Tuesday, December 10, 2013

  Actual Average Record
Temperature  
Mean Temperature 22 °F -  
Max Temperature 31 °F 44 °F 67 °F (1971)
Min Temperature 13 °F 27 °F 1 °F (1977)
Degree Days  
Heating Degree Days 43    
Moisture  
Dew Point 16 °F    
Average Humidity 78    
Maximum Humidity 93    
Minimum Humidity 59    
Precipitation  
Precipitation 0.00 in - - ()
Sea Level Pressure  
Sea Level Pressure 30.28 in    
Wind  
Wind Speed 6 mph (WSW)    
Max Wind Speed 17 mph    
Max Gust Speed 22 mph    
Visibility 9 miles    
Events Snow    
Averages and records for this station are not official NWS values.
T = Trace of Precipitation, MM = Missing Value Source: NWS Daily Summary

Daily Weather History Graph

Daily Weather History Graph

Search for Another Location

Airport or City:

Trip Planner

Search our weather history database for the weather conditions in past years. The results will help you decide how hot, cold, wet, or windy it might be!

Date:

Astronomy

Dec. 10, 2013 Rise Set
Actual Time 7:03 AM CST 4:34 PM CST
Civil Twilight 6:33 AM CST 5:04 PM CST
Nautical Twilight 6:00 AM CST 5:37 PM CST
Astronomical Twilight 5:27 AM CST 6:09 PM CST
Moon 12:32 PM CST (12/10) 12:24 AM CST (12/10)
Length of Visible Light 10h 30m
Length of Day
9h 31m
Waxing Gibbous, 62% of the Moon is Illuminated
Dec 10
Waxing Gibbous
Dec 17
Full
Dec 25
Last Quarter
Jan 1
New
Jan 7
First Quarter

Hourly Weather History & Observations

Time (CST) Temp. Windchill Dew Point Humidity Pressure Visibility Wind Dir Wind Speed Gust Speed Precip Events Conditions
12:15 AM 23.0 °F 18.4 °F 20.1 °F 89% 30.28 in 5.0 mi West 3.5 mph - N/A Snow Light Snow
12:35 AM 23.0 °F - 20.3 °F 89% 30.26 in 2.5 mi Calm Calm - N/A Snow Light Snow
12:55 AM 22.8 °F 18.2 °F 20.5 °F 91% 30.26 in 3.0 mi West 3.5 mph - N/A Snow Light Snow
1:15 AM 22.8 °F 16.7 °F 20.3 °F 90% 30.25 in 5.0 mi West 4.6 mph - N/A Snow Light Snow
1:35 AM 22.6 °F 16.5 °F 20.1 °F 90% 30.25 in 7.0 mi NW 4.6 mph - N/A Snow Light Snow
1:55 AM 22.1 °F 13.7 °F 18.1 °F 85% 30.25 in 10.0 mi NW 6.9 mph - N/A   Overcast
2:15 AM 21.9 °F 14.5 °F 18.0 °F 85% 30.25 in 10.0 mi WNW 5.8 mph - N/A   Overcast
2:35 AM 21.9 °F 14.5 °F 17.8 °F 84% 30.26 in 10.0 mi NW 5.8 mph - N/A   Overcast
2:55 AM 21.9 °F 13.4 °F 17.6 °F 83% 30.26 in 10.0 mi NW 6.9 mph - N/A   Overcast
3:15 AM 21.9 °F 14.5 °F 17.6 °F 83% 30.26 in 10.0 mi WNW 5.8 mph - N/A   Mostly Cloudy
3:35 AM 22.1 °F 17.4 °F 17.4 °F 82% 30.24 in 10.0 mi West 3.5 mph - N/A   Overcast
3:55 AM 22.1 °F 17.4 °F 17.4 °F 82% 30.25 in 10.0 mi West 3.5 mph - N/A   Overcast
4:35 AM 20.5 °F 12.8 °F 15.8 °F 82% 30.26 in 10.0 mi West 5.8 mph - N/A   Scattered Clouds
4:55 AM 19.2 °F 12.5 °F 14.9 °F 83% 30.26 in 10.0 mi West 4.6 mph - N/A   Clear
5:15 AM 18.3 °F 10.2 °F 14.7 °F 86% 30.28 in 10.0 mi West 5.8 mph - N/A   Clear
5:35 AM 17.2 °F 10.2 °F 13.6 °F 86% 30.28 in 10.0 mi WSW 4.6 mph - N/A   Clear
5:55 AM 15.4 °F 8.1 °F 12.7 °F 89% 30.28 in 10.0 mi SW 4.6 mph - N/A   Clear
6:15 AM 14.9 °F 7.5 °F 12.2 °F 89% 30.28 in 10.0 mi WSW 4.6 mph - N/A   Clear
6:35 AM 15.3 °F 7.9 °F 11.8 °F 86% 30.29 in 10.0 mi WSW 4.6 mph - N/A   Clear
6:55 AM 13.5 °F 2.2 °F 10.8 °F 89% 30.29 in 10.0 mi SW 8.1 mph - N/A   Clear
7:15 AM 14.4 °F 3.3 °F 11.7 °F 89% 30.29 in 7.0 mi SW 8.1 mph - N/A   Clear
7:35 AM 14.0 °F 2.9 °F 11.7 °F 90% 30.29 in 7.0 mi SW 8.1 mph - N/A   Clear
7:55 AM 14.5 °F 3.6 °F 12.6 °F 92% 30.29 in 5.0 mi SSW 8.1 mph - N/A   Clear
8:15 AM 16.5 °F 4.3 °F 13.5 °F 88% 30.28 in 7.0 mi SSW 10.4 mph - N/A   Clear
8:35 AM 17.6 °F 5.7 °F 13.5 °F 84% 30.28 in 10.0 mi SSW 10.4 mph - N/A   Clear
8:55 AM 18.7 °F 7.8 °F 14.0 °F 82% 30.28 in 10.0 mi SSW 9.2 mph - N/A   Clear
9:15 AM 20.3 °F 7.7 °F 14.0 °F 77% 30.29 in 10.0 mi SW 12.7 mph - N/A   Clear
9:35 AM 21.6 °F 9.3 °F 14.2 °F 73% 30.28 in 10.0 mi SW 12.7 mph - N/A   Clear
9:55 AM 22.6 °F 8.7 °F 14.2 °F 70% 30.27 in 10.0 mi SW 17.3 mph 20.7 mph N/A   Clear
10:15 AM 23.5 °F 9.9 °F 14.5 °F 69% 30.27 in 10.0 mi SW 17.3 mph 21.9 mph N/A   Clear
10:35 AM 24.1 °F 11.5 °F 14.9 °F 68% 30.27 in 10.0 mi SW 15.0 mph - N/A   Clear
10:55 AM 24.8 °F 12.9 °F 15.1 °F 67% 30.28 in 10.0 mi WSW 13.8 mph - N/A   Clear
11:15 AM 25.3 °F 13.6 °F 15.1 °F 65% 30.28 in 10.0 mi SW 13.8 mph 18.4 mph N/A   Clear
11:35 AM 25.7 °F 12.7 °F 15.4 °F 65% 30.26 in 10.0 mi WSW 17.3 mph - N/A   Clear
11:55 AM 26.4 °F 14.5 °F 16.0 °F 65% 30.27 in 10.0 mi SW 15.0 mph - N/A   Clear
12:15 PM 27.1 °F 17.5 °F 16.5 °F 64% 30.26 in 10.0 mi SW 10.4 mph - N/A   Clear
12:35 PM 27.5 °F 16.8 °F 16.3 °F 63% 30.26 in 10.0 mi WSW 12.7 mph - N/A   Clear
12:55 PM 28.6 °F 19.9 °F 16.5 °F 61% 30.26 in 10.0 mi WSW 9.2 mph - N/A   Clear
1:15 PM 28.9 °F 21.1 °F 17.1 °F 61% 30.26 in 10.0 mi WSW 8.1 mph - N/A   Clear
1:35 PM 29.3 °F 20.8 °F 17.8 °F 62% 30.26 in 10.0 mi WSW 9.2 mph - N/A   Clear
1:55 PM 29.7 °F 20.1 °F 17.4 °F 60% 30.26 in 10.0 mi WSW 11.5 mph - N/A   Clear
2:15 PM 30.0 °F 20.0 °F 17.8 °F 60% 30.26 in 10.0 mi WSW 12.7 mph 17.3 mph N/A   Clear
2:35 PM 30.2 °F 20.2 °F 18.3 °F 61% 30.27 in 10.0 mi WSW 12.7 mph - N/A   Clear
2:55 PM 30.6 °F 21.8 °F 18.5 °F 61% 30.27 in 10.0 mi WSW 10.4 mph - N/A   Clear
3:15 PM 31.1 °F 23.1 °F 18.3 °F 59% 30.27 in 10.0 mi WSW 9.2 mph - N/A   Clear
3:35 PM 30.7 °F 23.3 °F 18.3 °F 60% 30.28 in 10.0 mi WSW 8.1 mph - N/A   Clear
3:55 PM 30.9 °F 24.3 °F 18.0 °F 59% 30.29 in 10.0 mi SW 6.9 mph - N/A   Clear
4:15 PM 30.0 °F 25.2 °F 17.6 °F 60% 30.29 in 10.0 mi WSW 4.6 mph - N/A   Clear
4:35 PM 28.2 °F 24.4 °F 16.9 °F 63% 30.29 in 10.0 mi SSW 3.5 mph - N/A   Clear
4:55 PM 28.9 °F 23.9 °F 17.6 °F 63% 30.27 in 10.0 mi SSW 4.6 mph - N/A   Clear
5:15 PM 27.7 °F - 17.6 °F 66% 30.27 in 10.0 mi Calm Calm - N/A   Clear
5:35 PM 26.1 °F - 17.1 °F 69% 30.27 in 10.0 mi Calm Calm - N/A   Clear
5:55 PM 23.4 °F - 16.9 °F 76% 30.27 in 10.0 mi Calm Calm - N/A   Clear
6:15 PM 23.9 °F - 17.4 °F 76% 30.28 in 10.0 mi Calm Calm - N/A   Clear
6:35 PM 23.5 °F - 17.4 °F 77% 30.29 in 10.0 mi Calm Calm - N/A   Clear
6:55 PM 19.8 °F - 15.1 °F 82% 30.29 in 10.0 mi Calm Calm - N/A   Clear
7:15 PM 22.1 °F - 17.4 °F 82% 30.28 in 10.0 mi Calm Calm - N/A   Clear
7:35 PM 21.0 °F - 17.2 °F 85% 30.29 in 10.0 mi Calm Calm - N/A   Clear
7:55 PM 19.2 °F - 14.0 °F 80% 30.31 in 10.0 mi Calm Calm - N/A   Clear
8:15 PM 18.7 °F - 15.3 °F 87% 30.32 in 10.0 mi Calm Calm - N/A   Clear
8:35 PM 22.8 °F 18.2 °F 17.6 °F 80% 30.33 in 10.0 mi SSW 3.5 mph - N/A   Clear
8:55 PM 20.3 °F - 16.7 °F 86% 30.32 in 10.0 mi Calm Calm - N/A   Clear
9:15 PM 22.3 °F - 17.6 °F 82% 30.33 in 10.0 mi Calm Calm - N/A   Clear
9:35 PM 23.0 °F - 18.3 °F 82% 30.33 in 10.0 mi Calm Calm - N/A   Clear
9:55 PM 22.8 °F - 18.3 °F 83% 30.34 in 10.0 mi Calm Calm - N/A   Clear
10:15 PM 19.8 °F - 16.9 °F 89% 30.34 in 10.0 mi Calm Calm - N/A   Clear
10:35 PM 18.1 °F - 16.3 °F 93% 30.34 in 10.0 mi Calm Calm - N/A   Clear
10:55 PM 17.6 °F - 16.0 °F 93% 30.34 in 10.0 mi Calm Calm - N/A   Clear
11:15 PM 15.8 °F - 14.2 °F 93% 30.35 in 7.0 mi Calm Calm - N/A   Clear
11:35 PM 15.6 °F - 13.8 °F 93% 30.35 in 7.0 mi Calm Calm - N/A   Clear
11:55 PM 15.8 °F - 14.0 °F 93% 30.35 in 7.0 mi Calm Calm - N/A   Clear